Simultaneous Nadir Overpasses (SNOs) Predictions

Prediction of SNOs near US between AQUA and NPP Satellite Orbit:

Table of predicted SNOs near US for the next 10.0 days since TLE Epoch: 12/27/2019
Index Date (AQUA) Time (AQUA) AQUA Lat,Lon Date (NPP) Time (NPP) NPP Lat,Lon Distance(km) Time Diff (sec)
1 12/29/2019 18:16:47 49.99, -80.19 12/29/2019 18:10:08 49.73, -81.71 112.73 399
2 12/29/2019 19:55:40 49.98,-104.91 12/29/2019 19:51:36 49.62,-107.03 157.95 244
3 12/29/2019 21:30:50 36.69,-124.99 12/29/2019 21:29:14 36.19,-127.52 232.64 96
4 01/01/2020 09:24:05 21.02,-114.00 01/01/2020 09:16:02 21.09,-114.43 46.39 483
5 01/04/2020 06:30:15 46.09, -65.11 01/04/2020 06:30:10 46.44, -67.11 158.16 5
6 01/04/2020 08:08:04 49.90, -88.33 01/04/2020 08:10:31 50.40, -90.80 184.80 147
7 01/04/2020 09:46:57 49.90,-113.05 01/04/2020 09:51:59 50.51,-116.13 229.20 302




NCC Satellite Simultaneous Nadir Overpasses (SNOs) Prediction Service
